AZU8720 SBBE-KFLL

Flight info

Callsign AZU8720
Flight time N/A
Altitude 34000
Route ILMAN UZ41 OTONI UG449 KORTO DCT ANADA L452 BQN R763 MUNOZ L452 RNTRY R763 GTK DCT ZQA OLAHS3
Aircraft A320/M-SDE3FGHIRWY/LB1

Departure

Time 2026-05-07 06:37
Airport Val de Cans/Júlio Cezar Ribeiro International Airport (SBBE)

Arrival

Time N/A
Airport Fort Lauderdale Hollywood International Airport (KFLL)
Time Latitude Longitude Altitude Speed Heading
2026-05-07 06:05 -1.39036 -48.47908 56 ft 0 kts 282°
2026-05-07 06:25 -1.39037 -48.47901 56 ft 3 kts 283°
2026-05-07 06:26 -1.39042 -48.47882 57 ft 3 kts 291°
2026-05-07 06:26 -1.39051 -48.47864 51 ft 3 kts 304°
2026-05-07 06:26 -1.39064 -48.47848 55 ft 3 kts 320°
2026-05-07 06:26 -1.39070 -48.47843 55 ft 0 kts 321°
2026-05-07 06:29 -1.39067 -48.47845 55 ft 3 kts 323°
2026-05-07 06:30 -1.39032 -48.47827 54 ft 9 kts 26°
2026-05-07 06:30 -1.38967 -48.47819 57 ft 9 kts
2026-05-07 06:30 -1.38886 -48.47811 56 ft 14 kts
2026-05-07 06:30 -1.38789 -48.47803 55 ft 14 kts
2026-05-07 06:31 -1.38707 -48.47797 55 ft 10 kts
2026-05-07 06:31 -1.38666 -48.47762 55 ft 7 kts 85°
2026-05-07 06:31 -1.38665 -48.47725 56 ft 3 kts 89°
2026-05-07 06:31 -1.38665 -48.47708 56 ft 4 kts 89°
2026-05-07 06:32 -1.38630 -48.47679 55 ft 11 kts
2026-05-07 06:32 -1.38525 -48.47671 54 ft 18 kts
2026-05-07 06:32 -1.38395 -48.47660 52 ft 20 kts
2026-05-07 06:32 -1.38255 -48.47648 52 ft 21 kts
2026-05-07 06:33 -1.38109 -48.47636 50 ft 22 kts
2026-05-07 06:33 -1.37957 -48.47623 47 ft 21 kts
2026-05-07 06:33 -1.37846 -48.47535 48 ft 20 kts 45°
2026-05-07 06:33 -1.37746 -48.47436 49 ft 20 kts 45°
2026-05-07 06:34 -1.37646 -48.47336 50 ft 20 kts 45°
2026-05-07 06:34 -1.37550 -48.47239 53 ft 19 kts 45°
2026-05-07 06:34 -1.37456 -48.47145 54 ft 19 kts 45°
2026-05-07 06:34 -1.37364 -48.47052 53 ft 18 kts 45°
2026-05-07 06:35 -1.37279 -48.46968 52 ft 15 kts 40°
2026-05-07 06:35 -1.37206 -48.46940 56 ft 9 kts 22°
2026-05-07 06:35 -1.37200 -48.46903 54 ft 5 kts 141°
2026-05-07 06:35 -1.37224 -48.46912 50 ft 3 kts 223°
2026-05-07 06:36 -1.37235 -48.46922 52 ft 3 kts 223°
2026-05-07 06:36 -1.37379 -48.47065 53 ft 65 kts 227°
2026-05-07 06:36 -1.37846 -48.47536 48 ft 126 kts 225°
2026-05-07 06:36 -1.38590 -48.48283 72 ft 171 kts 225°
2026-05-07 06:37 -1.39401 -48.49090 780 ft 162 kts 226°
2026-05-07 06:37 -1.39910 -48.50109 1181 ft 172 kts 261°
2026-05-07 06:37 -1.40091 -48.51371 1386 ft 194 kts 262°
2026-05-07 06:37 -1.40279 -48.52795 1502 ft 221 kts 262°
2026-05-07 06:38 -1.40498 -48.54414 1729 ft 247 kts 263°
2026-05-07 06:38 -1.40754 -48.56183 2124 ft 267 kts 262°
2026-05-07 06:38 -1.41029 -48.58047 2769 ft 273 kts 261°
2026-05-07 06:38 -1.41291 -48.59904 3533 ft 275 kts 261°
2026-05-07 06:39 -1.41559 -48.61806 4260 ft 279 kts 261°
2026-05-07 06:39 -1.41837 -48.63741 4959 ft 283 kts 260°
2026-05-07 06:39 -1.42126 -48.65697 5668 ft 286 kts 260°
2026-05-07 06:39 -1.42424 -48.67676 6348 ft 290 kts 260°
2026-05-07 06:40 -1.42725 -48.69678 6994 ft 293 kts 260°
2026-05-07 06:40 -1.43032 -48.71704 7655 ft 296 kts 261°
2026-05-07 06:40 -1.43343 -48.73746 8308 ft 299 kts 261°
2026-05-07 06:40 -1.43657 -48.75813 8953 ft 302 kts 260°
2026-05-07 06:41 -1.43975 -48.77900 9584 ft 306 kts 261°
2026-05-07 06:41 -1.44296 -48.80017 10107 ft 314 kts 261°
2026-05-07 06:41 -1.44635 -48.82253 10225 ft 336 kts 261°
2026-05-07 06:41 -1.44994 -48.84630 10371 ft 355 kts 261°
2026-05-07 06:42 -1.45365 -48.87101 10796 ft 363 kts 261°
2026-05-07 06:42 -1.45740 -48.89605 11343 ft 366 kts 261°
2026-05-07 06:42 -1.46117 -48.92131 11908 ft 369 kts 261°
2026-05-07 06:42 -1.46499 -48.94676 12467 ft 372 kts 261°
2026-05-07 06:43 -1.46886 -48.97239 13018 ft 374 kts 261°
2026-05-07 06:43 -1.47277 -48.99819 13566 ft 377 kts 261°
2026-05-07 06:43 -1.47674 -49.02418 14057 ft 380 kts 261°
2026-05-07 06:43 -1.48074 -49.05033 14536 ft 382 kts 261°
2026-05-07 06:44 -1.48460 -49.07665 15006 ft 384 kts 264°
2026-05-07 06:44 -1.48435 -49.10340 15448 ft 387 kts 278°
2026-05-07 06:44 -1.47762 -49.12948 15873 ft 390 kts 292°
2026-05-07 06:44 -1.46478 -49.15335 16310 ft 391 kts 306°
2026-05-07 06:45 -1.44658 -49.17351 16739 ft 393 kts 320°
2026-05-07 06:45 -1.42539 -49.19085 17187 ft 394 kts 321°
2026-05-07 06:45 -1.40407 -49.20817 17613 ft 396 kts 321°
2026-05-07 06:45 -1.38262 -49.22564 18046 ft 399 kts 321°
2026-05-07 06:46 -1.36105 -49.24322 18429 ft 401 kts 321°
2026-05-07 06:46 -1.33939 -49.26089 18780 ft 403 kts 321°
2026-05-07 06:46 -1.31755 -49.27869 19132 ft 406 kts 321°
2026-05-07 06:46 -1.29562 -49.29654 19463 ft 408 kts 321°
2026-05-07 06:47 -1.27353 -49.31453 19803 ft 410 kts 321°
2026-05-07 06:47 -1.25135 -49.33257 20131 ft 413 kts 321°
2026-05-07 06:47 -1.22902 -49.35074 20456 ft 415 kts 321°
2026-05-07 06:47 -1.20659 -49.36901 20788 ft 417 kts 321°
2026-05-07 06:48 -1.18403 -49.38742 21109 ft 420 kts 321°
2026-05-07 06:48 -1.16133 -49.40592 21428 ft 422 kts 321°
2026-05-07 06:48 -1.13849 -49.42449 21735 ft 424 kts 321°
2026-05-07 06:48 -1.11554 -49.44313 22039 ft 427 kts 321°
2026-05-07 06:49 -1.09244 -49.46192 22343 ft 429 kts 321°
2026-05-07 06:49 -1.06959 -49.48055 22648 ft 431 kts 321°
2026-05-07 06:49 -1.04631 -49.49951 22949 ft 433 kts 321°
2026-05-07 06:49 -1.02291 -49.51860 23239 ft 435 kts 321°
2026-05-07 06:50 -0.99943 -49.53777 23523 ft 437 kts 321°
2026-05-07 06:50 -0.97579 -49.55705 23758 ft 439 kts 321°
2026-05-07 06:50 -0.95206 -49.57639 23998 ft 441 kts 321°
2026-05-07 06:50 -0.92823 -49.59581 24236 ft 443 kts 321°
2026-05-07 06:51 -0.90430 -49.61530 24473 ft 445 kts 321°
2026-05-07 06:51 -0.88023 -49.63489 24724 ft 447 kts 321°
2026-05-07 06:51 -0.85610 -49.65449 24946 ft 448 kts 321°
2026-05-07 06:51 -0.83185 -49.67416 25179 ft 450 kts 321°
2026-05-07 06:52 -0.80750 -49.69394 25413 ft 452 kts 321°
2026-05-07 06:52 -0.78313 -49.71379 25638 ft 453 kts 321°
2026-05-07 06:52 -0.75866 -49.73375 25860 ft 455 kts 321°
2026-05-07 06:52 -0.73410 -49.75381 26079 ft 457 kts 321°
2026-05-07 06:53 -0.70947 -49.77392 26288 ft 458 kts 321°
2026-05-07 06:53 -0.68473 -49.79410 26501 ft 460 kts 321°
2026-05-07 06:53 -0.65985 -49.81438 26715 ft 462 kts 321°
2026-05-07 06:53 -0.63493 -49.83466 26931 ft 463 kts 321°
2026-05-07 06:54 -0.60988 -49.85505 27149 ft 465 kts 321°
2026-05-07 06:54 -0.58474 -49.87549 27364 ft 467 kts 321°
2026-05-07 06:54 -0.55953 -49.89597 27574 ft 468 kts 321°
2026-05-07 06:54 -0.53420 -49.91655 27784 ft 470 kts 321°
2026-05-07 06:55 -0.50880 -49.93719 27988 ft 472 kts 321°
2026-05-07 06:55 -0.48331 -49.95793 28193 ft 473 kts 321°
2026-05-07 06:55 -0.45808 -49.97850 28377 ft 475 kts 321°
2026-05-07 06:55 -0.43208 -49.99969 28566 ft 477 kts 321°
2026-05-07 06:56 -0.40672 -50.02037 28749 ft 478 kts 321°
2026-05-07 06:56 -0.38090 -50.04141 28930 ft 480 kts 321°
2026-05-07 06:56 -0.35500 -50.06250 29109 ft 481 kts 321°
2026-05-07 06:56 -0.32902 -50.08361 29286 ft 483 kts 321°
2026-05-07 06:57 -0.30290 -50.10482 29453 ft 484 kts 321°
2026-05-07 06:57 -0.27675 -50.12605 29614 ft 485 kts 321°
2026-05-07 06:57 -0.25056 -50.14737 29802 ft 487 kts 321°
2026-05-07 06:57 -0.22426 -50.16881 29971 ft 488 kts 321°
2026-05-07 06:58 -0.19791 -50.19031 30125 ft 489 kts 321°
2026-05-07 06:58 -0.17152 -50.21182 30277 ft 490 kts 321°
2026-05-07 06:58 -0.14502 -50.23337 30430 ft 491 kts 321°
2026-05-07 06:58 -0.11853 -50.25493 30609 ft 491 kts 321°
2026-05-07 06:59 -0.09208 -50.27647 30833 ft 490 kts 321°
2026-05-07 06:59 -0.06573 -50.29794 31054 ft 489 kts 321°
2026-05-07 06:59 -0.03938 -50.31939 31271 ft 488 kts 321°
2026-05-07 06:59 -0.01308 -50.34079 31485 ft 487 kts 321°
2026-05-07 07:00 0.01320 -50.36221 31700 ft 487 kts 321°
2026-05-07 07:00 0.03939 -50.38356 31916 ft 486 kts 321°
2026-05-07 07:00 0.06556 -50.40484 32141 ft 485 kts 321°
2026-05-07 07:00 0.09171 -50.42607 32352 ft 484 kts 321°
2026-05-07 07:01 0.11782 -50.44727 32572 ft 483 kts 321°
2026-05-07 07:01 0.14386 -50.46845 32804 ft 482 kts 321°
2026-05-07 07:01 0.16983 -50.48958 33018 ft 481 kts 321°
2026-05-07 07:01 0.19540 -50.51041 33237 ft 480 kts 321°
2026-05-07 07:02 0.22126 -50.53152 33456 ft 480 kts 321°
2026-05-07 07:02 0.24706 -50.55259 33671 ft 479 kts 321°
2026-05-07 07:02 0.27283 -50.57362 33882 ft 479 kts 321°
2026-05-07 07:02 0.29857 -50.59459 33936 ft 476 kts 321°
2026-05-07 07:03 0.34981 -50.63618 33942 ft 473 kts 321°
2026-05-07 07:03 0.40085 -50.67769 33942 ft 473 kts 321°
2026-05-07 07:04 0.45184 -50.71925 33944 ft 473 kts 321°
2026-05-07 07:04 0.50284 -50.76080 33947 ft 473 kts 321°
2026-05-07 07:05 0.55378 -50.80240 33948 ft 473 kts 321°
2026-05-07 07:05 0.60478 -50.84391 33944 ft 473 kts 321°
2026-05-07 07:06 0.65585 -50.88540 33952 ft 473 kts 321°
2026-05-07 07:06 0.70695 -50.92693 33948 ft 473 kts 321°
2026-05-07 07:07 0.75797 -50.96851 33949 ft 473 kts 321°
2026-05-07 07:07 0.80920 -51.00984 33947 ft 474 kts 321°
2026-05-07 07:08 0.86065 -51.05092 33943 ft 474 kts 321°
2026-05-07 07:08 0.91212 -51.09207 33948 ft 474 kts 321°
2026-05-07 07:09 0.96352 -51.13328 33950 ft 474 kts 321°
2026-05-07 07:09 1.01487 -51.17456 33952 ft 474 kts 321°
2026-05-07 07:10 1.06626 -51.21575 33948 ft 474 kts 321°
2026-05-07 07:10 1.11763 -51.25696 33948 ft 474 kts 321°
2026-05-07 07:11 1.16906 -51.29818 33954 ft 474 kts 321°
2026-05-07 07:11 1.22046 -51.33939 33958 ft 474 kts 321°
2026-05-07 07:12 1.27184 -51.38063 33957 ft 474 kts 321°
2026-05-07 07:12 1.32326 -51.42179 33957 ft 474 kts 321°
2026-05-07 07:13 1.37464 -51.46298 33959 ft 473 kts 321°
2026-05-07 07:13 1.42593 -51.50422 33960 ft 473 kts 321°
2026-05-07 07:14 1.47723 -51.54545 33961 ft 473 kts 321°
2026-05-07 07:14 1.52818 -51.58635 33964 ft 473 kts 321°
2026-05-07 07:15 1.57940 -51.62747 33970 ft 472 kts 321°
2026-05-07 07:15 1.63067 -51.66855 33967 ft 472 kts 321°
2026-05-07 07:16 1.68190 -51.70963 33971 ft 472 kts 321°
2026-05-07 07:16 1.73314 -51.75071 33965 ft 472 kts 321°
2026-05-07 07:17 1.78428 -51.79179 33966 ft 472 kts 321°
2026-05-07 07:17 1.83548 -51.83289 33971 ft 472 kts 321°
2026-05-07 07:18 1.88661 -51.87404 33964 ft 472 kts 321°
2026-05-07 07:18 1.92912 -51.90828 33966 ft 472 kts 321°
2026-05-07 07:19 1.98034 -51.94937 33963 ft 472 kts 321°
2026-05-07 07:19 2.03156 -51.99044 33963 ft 472 kts 321°
2026-05-07 07:20 2.08280 -52.03154 33963 ft 472 kts 321°
2026-05-07 07:20 2.13399 -52.07268 33957 ft 472 kts 321°
2026-05-07 07:21 2.18526 -52.11392 33961 ft 473 kts 321°
2026-05-07 07:21 2.23656 -52.15513 33961 ft 473 kts 321°
2026-05-07 07:22 2.28792 -52.19636 33958 ft 473 kts 321°
2026-05-07 07:22 2.33927 -52.23760 33956 ft 474 kts 321°
2026-05-07 07:23 2.39061 -52.27888 33959 ft 474 kts 321°
2026-05-07 07:23 2.44197 -52.32016 33967 ft 473 kts 321°
2026-05-07 07:24 2.49327 -52.36137 33967 ft 473 kts 321°
2026-05-07 07:24 2.54457 -52.40258 33969 ft 473 kts 321°
2026-05-07 07:25 2.62146 -52.46440 33966 ft 473 kts 321°
2026-05-07 07:26 2.67224 -52.50622 33965 ft 472 kts 316°
2026-05-07 07:26 2.71955 -52.55173 33971 ft 472 kts 316°
2026-05-07 07:27 2.76685 -52.59725 33967 ft 472 kts 316°
2026-05-07 07:27 2.81383 -52.64247 33965 ft 472 kts 316°
2026-05-07 07:28 2.86107 -52.68799 33969 ft 472 kts 315°
2026-05-07 07:28 2.90832 -52.73354 33967 ft 472 kts 315°
2026-05-07 07:29 2.95555 -52.77905 33965 ft 471 kts 316°
2026-05-07 07:29 3.00278 -52.82455 33967 ft 471 kts 316°
2026-05-07 07:30 3.04997 -52.87007 33969 ft 471 kts 316°
2026-05-07 07:30 3.09717 -52.91556 33971 ft 471 kts 316°
2026-05-07 07:31 3.14437 -52.96103 33970 ft 471 kts 316°
2026-05-07 07:31 3.19157 -53.00645 33970 ft 471 kts 316°
2026-05-07 07:32 3.23871 -53.05190 33972 ft 470 kts 316°
2026-05-07 07:32 3.28584 -53.09737 33970 ft 470 kts 316°
2026-05-07 07:33 3.33288 -53.14281 33972 ft 470 kts 316°
2026-05-07 07:33 3.37991 -53.18826 33974 ft 470 kts 316°
2026-05-07 07:34 3.42697 -53.23363 33970 ft 470 kts 316°
2026-05-07 07:34 3.47399 -53.27899 33972 ft 469 kts 316°
2026-05-07 07:35 3.52100 -53.32430 33971 ft 469 kts 316°
2026-05-07 07:35 3.56799 -53.36962 33972 ft 469 kts 316°
2026-05-07 07:36 3.61462 -53.41464 33971 ft 469 kts 316°
2026-05-07 07:36 3.66153 -53.46001 33969 ft 469 kts 316°
2026-05-07 07:37 3.70842 -53.50542 33965 ft 469 kts 316°
2026-05-07 07:37 3.75533 -53.55079 33963 ft 469 kts 316°
2026-05-07 07:38 3.80232 -53.59617 33968 ft 469 kts 316°
2026-05-07 07:38 3.84932 -53.64151 33966 ft 469 kts 316°
2026-05-07 07:39 3.89620 -53.68695 33963 ft 469 kts 316°
2026-05-07 07:39 3.94317 -53.73239 33962 ft 469 kts 316°
2026-05-07 07:40 3.99013 -53.77779 33962 ft 469 kts 316°
2026-05-07 07:40 4.03708 -53.82328 33957 ft 470 kts 316°
2026-05-07 07:41 4.08406 -53.86882 33954 ft 470 kts 316°
2026-05-07 07:41 4.13110 -53.91431 33954 ft 470 kts 316°
2026-05-07 07:42 4.17815 -53.95983 33955 ft 470 kts 316°
2026-05-07 07:42 4.22523 -54.00529 33956 ft 470 kts 316°
2026-05-07 07:43 4.27226 -54.05094 33959 ft 470 kts 315°
2026-05-07 07:43 4.29585 -54.07386 33687 ft 475 kts 315°
2026-05-07 07:43 4.31949 -54.09686 33595 ft 472 kts 315°
2026-05-07 07:43 4.34304 -54.11976 33847 ft 472 kts 315°
2026-05-07 07:44 4.36663 -54.14272 33943 ft 474 kts 315°
2026-05-07 07:44 4.41397 -54.18880 33964 ft 475 kts 315°
2026-05-07 07:45 4.46140 -54.23494 33966 ft 475 kts 315°
2026-05-07 07:45 4.50884 -54.28098 33967 ft 475 kts 316°
2026-05-07 07:46 4.55603 -54.32668 33964 ft 475 kts 316°
2026-05-07 07:46 4.60354 -54.37267 33965 ft 475 kts 316°
2026-05-07 07:47 4.65105 -54.41863 33965 ft 475 kts 316°
2026-05-07 07:47 4.69860 -54.46457 33969 ft 474 kts 316°
2026-05-07 07:48 4.74611 -54.51040 33966 ft 474 kts 316°
2026-05-07 07:48 4.79376 -54.55614 33960 ft 474 kts 316°
2026-05-07 07:49 4.84139 -54.60185 33962 ft 474 kts 316°
2026-05-07 07:49 4.88903 -54.64758 33963 ft 474 kts 316°
2026-05-07 07:50 4.93669 -54.69327 33958 ft 474 kts 316°
2026-05-07 07:50 4.98443 -54.73894 33961 ft 474 kts 316°
2026-05-07 07:51 5.03224 -54.78442 33970 ft 473 kts 316°
2026-05-07 07:51 5.08008 -54.82977 33972 ft 473 kts 316°
2026-05-07 07:52 5.12789 -54.87506 33972 ft 473 kts 316°
2026-05-07 07:52 5.17569 -54.92033 33970 ft 472 kts 316°
2026-05-07 07:53 5.22348 -54.96556 33969 ft 472 kts 316°
2026-05-07 07:53 5.27126 -55.01075 33963 ft 472 kts 316°
2026-05-07 07:54 5.31922 -55.05585 33962 ft 472 kts 316°
2026-05-07 07:54 5.36740 -55.10066 33963 ft 473 kts 316°
2026-05-07 07:55 5.41565 -55.14550 33966 ft 473 kts 316°
2026-05-07 07:55 5.46387 -55.19029 33967 ft 473 kts 316°
2026-05-07 07:56 5.51216 -55.23512 33966 ft 473 kts 316°
2026-05-07 07:56 5.56045 -55.27991 33966 ft 473 kts 316°
2026-05-07 07:57 5.60878 -55.32460 33959 ft 472 kts 316°
2026-05-07 07:57 5.65717 -55.36924 33960 ft 472 kts 316°
2026-05-07 07:58 5.70572 -55.41367 33960 ft 472 kts 316°
2026-05-07 07:58 5.75426 -55.45806 33960 ft 472 kts 316°
2026-05-07 07:59 5.80280 -55.50243 33958 ft 472 kts 316°
2026-05-07 07:59 5.85133 -55.54675 33961 ft 471 kts 316°
2026-05-07 08:00 5.89956 -55.59072 33958 ft 471 kts 316°
2026-05-07 08:00 5.94810 -55.63491 33962 ft 471 kts 316°
2026-05-07 08:01 5.99663 -55.67906 33961 ft 471 kts 316°
2026-05-07 08:01 6.04517 -55.72324 33960 ft 471 kts 316°
2026-05-07 08:02 6.09368 -55.76738 33960 ft 471 kts 316°
2026-05-07 08:02 6.14227 -55.81147 33959 ft 470 kts 316°
2026-05-07 08:03 6.19082 -55.85545 33961 ft 470 kts 316°
2026-05-07 08:03 6.23936 -55.89942 33962 ft 469 kts 316°
2026-05-07 08:04 6.28787 -55.94332 33962 ft 469 kts 316°
2026-05-07 08:04 6.33655 -55.98706 33964 ft 469 kts 316°
2026-05-07 08:05 6.38524 -56.03070 33965 ft 469 kts 316°
2026-05-07 08:05 6.42565 -56.06697 33962 ft 468 kts 316°
2026-05-07 08:06 6.47431 -56.11051 33958 ft 468 kts 316°
2026-05-07 08:06 6.52302 -56.15403 33958 ft 468 kts 316°
2026-05-07 08:07 6.57170 -56.19757 33961 ft 468 kts 316°
2026-05-07 08:07 6.62033 -56.24110 33961 ft 468 kts 316°
2026-05-07 08:08 6.66907 -56.28453 33959 ft 468 kts 316°
2026-05-07 08:08 6.71787 -56.32790 33960 ft 468 kts 316°
2026-05-07 08:09 6.76655 -56.37124 33960 ft 467 kts 316°
2026-05-07 08:09 6.81526 -56.41453 33960 ft 467 kts 316°
2026-05-07 08:10 6.86403 -56.45770 33962 ft 467 kts 316°
2026-05-07 08:10 6.91273 -56.50093 33961 ft 467 kts 316°
2026-05-07 08:11 6.96138 -56.54418 33958 ft 467 kts 316°
2026-05-07 08:11 7.01014 -56.58729 33971 ft 466 kts 316°
2026-05-07 08:12 7.05896 -56.63020 33972 ft 465 kts 316°
2026-05-07 08:12 7.10761 -56.67311 33971 ft 465 kts 316°
2026-05-07 08:13 7.15628 -56.71595 33966 ft 464 kts 316°
2026-05-07 08:13 7.20501 -56.75862 33968 ft 464 kts 317°
2026-05-07 08:14 7.25362 -56.80135 33965 ft 464 kts 316°
2026-05-07 08:14 7.30228 -56.84412 33963 ft 464 kts 317°
2026-05-07 08:15 7.35087 -56.88676 33986 ft 463 kts 316°
2026-05-07 08:15 7.39932 -56.92928 33987 ft 461 kts 316°
2026-05-07 08:16 7.44753 -56.97184 33979 ft 461 kts 317°
2026-05-07 08:16 7.49584 -57.01430 33980 ft 460 kts 317°
2026-05-07 08:17 7.54413 -57.05664 33971 ft 460 kts 316°
2026-05-07 08:17 7.59235 -57.09903 33969 ft 460 kts 317°
2026-05-07 08:18 7.64049 -57.14145 33972 ft 459 kts 317°
2026-05-07 08:18 7.68840 -57.18336 33973 ft 459 kts 317°
2026-05-07 08:19 7.73702 -57.22573 33976 ft 459 kts 317°
2026-05-07 08:19 7.78493 -57.26759 33973 ft 459 kts 316°
2026-05-07 08:20 7.83320 -57.30962 33969 ft 458 kts 317°
2026-05-07 08:20 7.88154 -57.35161 33967 ft 458 kts 317°
2026-05-07 08:21 7.92980 -57.39366 33984 ft 458 kts 317°
2026-05-07 08:21 7.97811 -57.43566 33973 ft 458 kts 317°
2026-05-07 08:22 8.02644 -57.47756 33977 ft 458 kts 317°
2026-05-07 08:22 8.07483 -57.51940 33976 ft 458 kts 317°
2026-05-07 08:23 8.12319 -57.56118 33975 ft 457 kts 317°
2026-05-07 08:23 8.17157 -57.60293 33981 ft 457 kts 317°
2026-05-07 08:24 8.22026 -57.64493 33973 ft 457 kts 317°
2026-05-07 08:24 8.26829 -57.68639 33974 ft 457 kts 317°
2026-05-07 08:25 8.31666 -57.72813 33970 ft 458 kts 317°
2026-05-07 08:25 8.36511 -57.76985 33980 ft 458 kts 317°
2026-05-07 08:26 8.43800 -57.83225 33970 ft 458 kts 317°
2026-05-07 08:26 8.48661 -57.87384 33976 ft 458 kts 317°
2026-05-07 08:27 8.53526 -57.91545 33970 ft 458 kts 317°
2026-05-07 08:27 8.58392 -57.95698 33975 ft 458 kts 317°
2026-05-07 08:28 8.63255 -57.99842 33984 ft 457 kts 317°
2026-05-07 08:28 8.68119 -58.03983 33987 ft 457 kts 317°
2026-05-07 08:29 8.72993 -58.08106 33996 ft 456 kts 317°
2026-05-07 08:29 8.77865 -58.12217 34001 ft 456 kts 317°
2026-05-07 08:30 8.82735 -58.16323 33993 ft 456 kts 317°
2026-05-07 08:30 8.87601 -58.20422 34002 ft 455 kts 317°
2026-05-07 08:31 8.92465 -58.24529 33997 ft 455 kts 317°
2026-05-07 08:31 8.97320 -58.28628 33997 ft 454 kts 317°
2026-05-07 08:32 9.02173 -58.32723 34001 ft 454 kts 317°
2026-05-07 08:32 9.06999 -58.36786 33994 ft 454 kts 317°
2026-05-07 08:33 9.11856 -58.40871 34002 ft 454 kts 317°
2026-05-07 08:33 9.16715 -58.44959 33993 ft 454 kts 317°
2026-05-07 08:34 9.21571 -58.49043 33995 ft 454 kts 317°
2026-05-07 08:34 9.26417 -58.53137 34001 ft 454 kts 317°
2026-05-07 08:35 9.31266 -58.57229 33995 ft 454 kts 317°
2026-05-07 08:35 9.36115 -58.61317 33987 ft 454 kts 317°
2026-05-07 08:36 9.40965 -58.65404 33995 ft 453 kts 317°
2026-05-07 08:36 9.45814 -58.69491 33995 ft 453 kts 317°
2026-05-07 08:37 9.50664 -58.73575 33986 ft 453 kts 317°
2026-05-07 08:37 9.55516 -58.77658 33987 ft 453 kts 317°
2026-05-07 08:38 9.60373 -58.81743 33989 ft 453 kts 317°
2026-05-07 08:38 9.65228 -58.85826 33987 ft 453 kts 317°
2026-05-07 08:39 9.70083 -58.89907 33989 ft 453 kts 317°
2026-05-07 08:39 9.74938 -58.93992 33994 ft 454 kts 317°
2026-05-07 08:40 9.79792 -58.98078 34004 ft 454 kts 317°
2026-05-07 08:40 9.84648 -59.02163 33991 ft 454 kts 317°
2026-05-07 08:41 9.89501 -59.06255 33998 ft 454 kts 317°
2026-05-07 08:41 9.94322 -59.10325 33995 ft 454 kts 317°
2026-05-07 08:42 9.99175 -59.14419 33990 ft 454 kts 317°
2026-05-07 08:42 10.04031 -59.18513 34001 ft 454 kts 317°
2026-05-07 08:43 10.08889 -59.22607 33995 ft 454 kts 317°
2026-05-07 08:43 10.13753 -59.26697 34000 ft 454 kts 317°
2026-05-07 08:44 10.18614 -59.30783 33998 ft 454 kts 317°
2026-05-07 08:44 10.23478 -59.34872 33993 ft 454 kts 317°
2026-05-07 08:45 10.28343 -59.38960 34000 ft 454 kts 317°
2026-05-07 08:45 10.33207 -59.43046 33999 ft 454 kts 317°
2026-05-07 08:46 10.38077 -59.47134 33998 ft 454 kts 317°
2026-05-07 08:46 10.42951 -59.51219 34004 ft 454 kts 317°
2026-05-07 08:47 10.47836 -59.55288 34002 ft 454 kts 318°
2026-05-07 08:47 10.52728 -59.59360 33994 ft 455 kts 318°
2026-05-07 08:48 10.57629 -59.63430 33992 ft 455 kts 318°
2026-05-07 08:48 10.62539 -59.67500 33994 ft 456 kts 318°
2026-05-07 08:49 10.67455 -59.71575 33995 ft 456 kts 318°
2026-05-07 08:49 10.72373 -59.75650 34012 ft 456 kts 318°
2026-05-07 08:50 10.77297 -59.79726 33997 ft 456 kts 317°
2026-05-07 08:50 10.82204 -59.83758 34009 ft 457 kts 318°
2026-05-07 08:51 10.87148 -59.87815 34002 ft 457 kts 318°
2026-05-07 08:51 10.92093 -59.91869 34020 ft 456 kts 318°
2026-05-07 08:52 10.97037 -59.95921 34021 ft 456 kts 318°
2026-05-07 08:52 11.01142 -59.99285 34010 ft 456 kts 318°
2026-05-07 08:53 11.06079 -60.03329 34023 ft 456 kts 318°
2026-05-07 08:53 11.11021 -60.07373 34009 ft 456 kts 318°
2026-05-07 08:54 11.15963 -60.11408 34022 ft 455 kts 318°
2026-05-07 08:54 11.20906 -60.15437 34023 ft 455 kts 318°
2026-05-07 08:55 11.25839 -60.19462 34023 ft 454 kts 318°
2026-05-07 08:55 11.30766 -60.23486 34026 ft 454 kts 318°
2026-05-07 08:56 11.35692 -60.27508 34016 ft 454 kts 318°
2026-05-07 08:56 11.40618 -60.31529 34019 ft 453 kts 318°
2026-05-07 08:57 11.45539 -60.35545 34019 ft 453 kts 318°
2026-05-07 08:57 11.50468 -60.39550 34038 ft 453 kts 318°
2026-05-07 08:58 11.55404 -60.43548 34024 ft 453 kts 318°
2026-05-07 08:58 11.60338 -60.47540 34025 ft 453 kts 318°
2026-05-07 08:59 11.65285 -60.51520 34022 ft 453 kts 318°
2026-05-07 08:59 11.70233 -60.55500 34021 ft 453 kts 318°
2026-05-07 09:00 11.75185 -60.59480 34023 ft 453 kts 318°
2026-05-07 09:00 11.80103 -60.63429 34025 ft 453 kts 318°
2026-05-07 09:01 11.85068 -60.67391 34027 ft 453 kts 318°
2026-05-07 09:01 11.90053 -60.71344 34023 ft 453 kts 318°
2026-05-07 09:02 11.95035 -60.75293 34022 ft 454 kts 318°
2026-05-07 09:02 12.00025 -60.79244 34023 ft 454 kts 318°
2026-05-07 09:03 12.05015 -60.83193 34022 ft 454 kts 318°
2026-05-07 09:03 12.10012 -60.87146 34021 ft 454 kts 318°
2026-05-07 09:04 12.15008 -60.91096 34022 ft 454 kts 318°
2026-05-07 09:04 12.20019 -60.95034 34031 ft 455 kts 318°
2026-05-07 09:05 12.25047 -60.98960 34029 ft 455 kts 318°
2026-05-07 09:05 12.30076 -61.02885 34026 ft 455 kts 318°
2026-05-07 09:06 12.35108 -61.06804 34030 ft 455 kts 318°
2026-05-07 09:06 12.40142 -61.10714 34035 ft 454 kts 318°
2026-05-07 09:07 12.45174 -61.14619 34036 ft 454 kts 318°
2026-05-07 09:07 12.50206 -61.18524 34035 ft 454 kts 318°
2026-05-07 09:08 12.55245 -61.22411 34044 ft 453 kts 318°
2026-05-07 09:08 12.60292 -61.26281 34044 ft 453 kts 319°
2026-05-07 09:09 12.65335 -61.30144 34044 ft 452 kts 319°
2026-05-07 09:09 12.70377 -61.34002 34043 ft 452 kts 319°
2026-05-07 09:10 12.75423 -61.37842 34046 ft 451 kts 319°
2026-05-07 09:10 12.80462 -61.41671 34046 ft 451 kts 319°
2026-05-07 09:11 12.85499 -61.45495 34044 ft 451 kts 319°
2026-05-07 09:11 12.90539 -61.49317 34042 ft 450 kts 319°
2026-05-07 09:12 12.95574 -61.53134 34040 ft 450 kts 319°
2026-05-07 09:12 13.00610 -61.56950 34037 ft 450 kts 319°
2026-05-07 09:13 13.05647 -61.60766 34039 ft 450 kts 319°
2026-05-07 09:13 13.10683 -61.64580 34038 ft 450 kts 319°
2026-05-07 09:14 13.15727 -61.68398 34036 ft 450 kts 319°
2026-05-07 09:14 13.20770 -61.72215 34044 ft 450 kts 319°
2026-05-07 09:15 13.25832 -61.76009 34051 ft 451 kts 319°
2026-05-07 09:15 13.30906 -61.79796 34046 ft 451 kts 319°
2026-05-07 09:16 13.35977 -61.83576 34041 ft 450 kts 319°
2026-05-07 09:16 13.41048 -61.87354 34038 ft 450 kts 319°
2026-05-07 09:17 13.46121 -61.91133 34037 ft 451 kts 319°
2026-05-07 09:17 13.51168 -61.94886 34036 ft 451 kts 319°
2026-05-07 09:18 13.56255 -61.98657 34032 ft 451 kts 319°
2026-05-07 09:18 13.61357 -62.02414 34034 ft 451 kts 319°
2026-05-07 09:19 13.66467 -62.06163 34035 ft 451 kts 319°
2026-05-07 09:19 13.71584 -62.09917 34032 ft 452 kts 319°
2026-05-07 09:20 13.76702 -62.13672 34030 ft 452 kts 319°
2026-05-07 09:20 13.81827 -62.17431 34032 ft 453 kts 319°
2026-05-07 09:21 13.86957 -62.21193 34030 ft 453 kts 319°
2026-05-07 09:21 13.92090 -62.24951 34047 ft 453 kts 319°
2026-05-07 09:22 13.97238 -62.28703 34042 ft 454 kts 319°
2026-05-07 09:22 14.02395 -62.32458 34037 ft 454 kts 319°
2026-05-07 09:23 14.07559 -62.36216 34040 ft 455 kts 319°
2026-05-07 09:23 14.12722 -62.39971 34039 ft 454 kts 319°
2026-05-07 09:24 14.17888 -62.43727 34036 ft 454 kts 319°
2026-05-07 09:24 14.23057 -62.47485 34040 ft 455 kts 319°
2026-05-07 09:25 14.28230 -62.51245 34057 ft 455 kts 319°
2026-05-07 09:25 14.33395 -62.55013 34054 ft 455 kts 319°
2026-05-07 09:26 14.38557 -62.58787 34057 ft 455 kts 319°
2026-05-07 09:26 14.43723 -62.62561 34055 ft 455 kts 319°
2026-05-07 09:27 14.48882 -62.66330 34050 ft 454 kts 319°
2026-05-07 09:28 14.56618 -62.71983 34053 ft 454 kts 319°
2026-05-07 09:28 14.61772 -62.75748 34052 ft 454 kts 319°
2026-05-07 09:29 14.66910 -62.79518 34056 ft 453 kts 319°
2026-05-07 09:29 14.72001 -62.83262 34057 ft 452 kts 319°
2026-05-07 09:30 14.77110 -62.87035 34060 ft 451 kts 319°
2026-05-07 09:30 14.82247 -62.90824 34061 ft 450 kts 319°
2026-05-07 09:31 14.87347 -62.94582 34057 ft 450 kts 319°
2026-05-07 09:31 14.92444 -62.98339 34057 ft 450 kts 319°
2026-05-07 09:32 14.97533 -63.02090 34064 ft 449 kts 319°
2026-05-07 09:32 15.02578 -63.05822 34063 ft 448 kts 319°
2026-05-07 09:33 15.07645 -63.09568 34064 ft 448 kts 319°
2026-05-07 09:33 15.12710 -63.13311 34059 ft 447 kts 319°
2026-05-07 09:34 15.17757 -63.17079 34055 ft 447 kts 319°
2026-05-07 09:34 15.22797 -63.20849 34057 ft 447 kts 319°
2026-05-07 09:35 15.27839 -63.24621 34056 ft 447 kts 319°
2026-05-07 09:35 15.32877 -63.28395 34066 ft 447 kts 319°
2026-05-07 09:36 15.37875 -63.32232 34063 ft 447 kts 319°
2026-05-07 09:36 15.42873 -63.36080 34062 ft 447 kts 319°
2026-05-07 09:37 15.47869 -63.39927 34066 ft 447 kts 319°
2026-05-07 09:37 15.52862 -63.43772 34064 ft 447 kts 320°
2026-05-07 09:38 15.57827 -63.47648 34063 ft 447 kts 319°
2026-05-07 09:38 15.61946 -63.50872 34064 ft 446 kts 319°
2026-05-07 09:39 15.66903 -63.54751 34068 ft 446 kts 319°
2026-05-07 09:39 15.71819 -63.58670 34074 ft 445 kts 319°
2026-05-07 09:40 15.76716 -63.62604 34070 ft 445 kts 319°
2026-05-07 09:40 15.81609 -63.66532 34068 ft 445 kts 319°
2026-05-07 09:41 15.86505 -63.70462 34066 ft 444 kts 319°
2026-05-07 09:41 15.91396 -63.74388 34062 ft 444 kts 320°
2026-05-07 09:42 15.96249 -63.78353 34067 ft 443 kts 319°
2026-05-07 09:42 16.01086 -63.82325 34066 ft 443 kts 319°
2026-05-07 09:43 16.05899 -63.86315 34086 ft 442 kts 320°
2026-05-07 09:43 16.10681 -63.90325 34082 ft 441 kts 319°
2026-05-07 09:44 16.15455 -63.94328 34083 ft 440 kts 320°
2026-05-07 09:44 16.20222 -63.98325 34075 ft 440 kts 320°
2026-05-07 09:45 16.24987 -64.02321 34072 ft 440 kts 320°
2026-05-07 09:45 16.29747 -64.06321 34074 ft 439 kts 320°
2026-05-07 09:46 16.34437 -64.10328 34068 ft 439 kts 320°
2026-05-07 09:46 16.39153 -64.14358 34070 ft 438 kts 320°
2026-05-07 09:47 16.43865 -64.18383 34069 ft 438 kts 320°
2026-05-07 09:47 16.48575 -64.22410 34068 ft 438 kts 320°
2026-05-07 09:48 16.53284 -64.26436 34069 ft 438 kts 320°
2026-05-07 09:48 16.57990 -64.30458 34067 ft 438 kts 320°
2026-05-07 09:49 16.62699 -64.34479 34065 ft 438 kts 320°
2026-05-07 09:49 16.67397 -64.38515 34061 ft 437 kts 320°
2026-05-07 09:50 16.72075 -64.42562 34062 ft 437 kts 320°
2026-05-07 09:50 16.76747 -64.46618 34073 ft 437 kts 320°
2026-05-07 09:51 16.81407 -64.50674 34070 ft 436 kts 320°
2026-05-07 09:51 16.86068 -64.54728 34068 ft 436 kts 320°
2026-05-07 09:52 16.90732 -64.58783 34067 ft 436 kts 320°
2026-05-07 09:52 16.95393 -64.62837 34065 ft 436 kts 320°
2026-05-07 09:53 17.00052 -64.66889 34058 ft 436 kts 320°
2026-05-07 09:53 17.04681 -64.70916 34062 ft 436 kts 320°
2026-05-07 09:54 17.09344 -64.74972 34068 ft 436 kts 320°
2026-05-07 09:54 17.14000 -64.79026 34073 ft 436 kts 320°
2026-05-07 09:55 17.18656 -64.83081 34065 ft 435 kts 320°
2026-05-07 09:55 17.23308 -64.87131 34061 ft 435 kts 320°
2026-05-07 09:56 17.27964 -64.91181 34063 ft 435 kts 320°
2026-05-07 09:56 17.32616 -64.95231 34058 ft 435 kts 320°
2026-05-07 09:57 17.37268 -64.99283 34071 ft 435 kts 320°
2026-05-07 09:57 17.41909 -65.03340 34072 ft 434 kts 320°
2026-05-07 09:58 17.46548 -65.07396 34080 ft 434 kts 320°
2026-05-07 09:58 17.51182 -65.11449 34081 ft 433 kts 320°
2026-05-07 09:59 17.55807 -65.15493 34078 ft 433 kts 320°
2026-05-07 09:59 17.60432 -65.19535 34075 ft 433 kts 320°
2026-05-07 10:00 17.65054 -65.23574 34075 ft 432 kts 320°
2026-05-07 10:00 17.69673 -65.27610 34074 ft 432 kts 320°
2026-05-07 10:01 17.74291 -65.31646 34072 ft 432 kts 320°
2026-05-07 10:01 17.78908 -65.35680 34065 ft 432 kts 320°
2026-05-07 10:02 17.83529 -65.39711 34071 ft 432 kts 320°
2026-05-07 10:02 17.88118 -65.43704 34066 ft 432 kts 320°
2026-05-07 10:03 17.92745 -65.47728 34071 ft 431 kts 320°
2026-05-07 10:03 17.97364 -65.51745 34067 ft 431 kts 320°
2026-05-07 10:04 18.01987 -65.55763 34064 ft 431 kts 320°
2026-05-07 10:04 18.06609 -65.59780 34068 ft 431 kts 320°
2026-05-07 10:05 18.11234 -65.63804 34059 ft 431 kts 320°
2026-05-07 10:05 18.15855 -65.67834 34058 ft 432 kts 320°
2026-05-07 10:06 18.20476 -65.71866 34071 ft 432 kts 320°
2026-05-07 10:06 18.25096 -65.75899 34073 ft 432 kts 320°
2026-05-07 10:07 18.29714 -65.79933 34066 ft 432 kts 320°
2026-05-07 10:07 18.34338 -65.83969 34075 ft 432 kts 320°
2026-05-07 10:08 18.38961 -65.88002 34067 ft 431 kts 320°
2026-05-07 10:08 18.43584 -65.92034 34075 ft 431 kts 320°
2026-05-07 10:09 18.48191 -65.96081 34068 ft 431 kts 320°
2026-05-07 10:09 18.52786 -66.00149 34074 ft 431 kts 320°
2026-05-07 10:10 18.57366 -66.04234 34068 ft 431 kts 320°
2026-05-07 10:10 18.61943 -66.08320 34062 ft 431 kts 320°
2026-05-07 10:11 18.66523 -66.12406 34069 ft 431 kts 320°
2026-05-07 10:11 18.71100 -66.16488 34067 ft 431 kts 320°
2026-05-07 10:12 18.75682 -66.20575 34064 ft 431 kts 320°
2026-05-07 10:12 18.80261 -66.24658 34064 ft 431 kts 320°
2026-05-07 10:13 18.84815 -66.28777 34046 ft 431 kts 320°
2026-05-07 10:13 18.89356 -66.32921 34054 ft 431 kts 320°
2026-05-07 10:14 18.93891 -66.37077 34056 ft 431 kts 320°
2026-05-07 10:14 18.98423 -66.41231 34067 ft 431 kts 320°
2026-05-07 10:15 19.02928 -66.45358 34059 ft 431 kts 320°
2026-05-07 10:15 19.07464 -66.49512 34056 ft 431 kts 320°
2026-05-07 10:16 19.12000 -66.53666 34051 ft 431 kts 320°
2026-05-07 10:16 19.16536 -66.57820 34051 ft 431 kts 321°
2026-05-07 10:17 19.21043 -66.62011 34060 ft 431 kts 320°
2026-05-07 10:17 19.25545 -66.66206 34053 ft 431 kts 320°
2026-05-07 10:18 19.30049 -66.70407 34066 ft 431 kts 320°
2026-05-07 10:18 19.34554 -66.74607 34059 ft 432 kts 320°
2026-05-07 10:19 19.39062 -66.78809 34055 ft 432 kts 320°
2026-05-07 10:19 19.43570 -66.83011 34066 ft 432 kts 321°
2026-05-07 10:20 19.48079 -66.87210 34057 ft 432 kts 321°
2026-05-07 10:20 19.52578 -66.91423 34048 ft 432 kts 321°
2026-05-07 10:21 19.57055 -66.95681 34055 ft 432 kts 321°
2026-05-07 10:21 19.61530 -66.99945 34062 ft 433 kts 321°
2026-05-07 10:22 19.66005 -67.04217 34058 ft 433 kts 321°
2026-05-07 10:22 19.70454 -67.08463 34062 ft 433 kts 321°
2026-05-07 10:23 19.74934 -67.12737 34062 ft 433 kts 321°
2026-05-07 10:23 19.79413 -67.17009 34048 ft 433 kts 321°
2026-05-07 10:24 19.83892 -67.21280 34062 ft 433 kts 321°
2026-05-07 10:24 19.88346 -67.25577 34063 ft 432 kts 321°
2026-05-07 10:25 19.92783 -67.29883 34066 ft 432 kts 321°
2026-05-07 10:25 19.97215 -67.34184 34066 ft 431 kts 321°
2026-05-07 10:26 20.01645 -67.38482 34068 ft 431 kts 321°
2026-05-07 10:26 20.06075 -67.42779 34066 ft 431 kts 321°
2026-05-07 10:27 20.09755 -67.46347 34065 ft 431 kts 321°
2026-05-07 10:27 20.14186 -67.50642 34065 ft 431 kts 321°
2026-05-07 10:28 20.18645 -67.54965 34048 ft 431 kts 321°
2026-05-07 10:28 20.23019 -67.59257 34055 ft 430 kts 321°
2026-05-07 10:29 20.27444 -67.63604 34061 ft 430 kts 321°
2026-05-07 10:29 20.31842 -67.67922 34071 ft 430 kts 321°
2026-05-07 10:30 20.38440 -67.74383 34066 ft 429 kts 321°
2026-05-07 10:30 20.42808 -67.78660 34066 ft 429 kts 321°
2026-05-07 10:31 20.47201 -67.82959 34067 ft 429 kts 321°
2026-05-07 10:31 20.51601 -67.87263 34064 ft 429 kts 321°
2026-05-07 10:32 20.55999 -67.91563 34063 ft 429 kts 321°
2026-05-07 10:32 20.60400 -67.95865 34062 ft 429 kts 321°
2026-05-07 10:33 20.64800 -68.00166 34063 ft 429 kts 321°
2026-05-07 10:33 20.69195 -68.04466 34081 ft 428 kts 321°
2026-05-07 10:34 20.73583 -68.08764 34082 ft 428 kts 321°
2026-05-07 10:34 20.77967 -68.13058 34080 ft 427 kts 321°
2026-05-07 10:35 20.82346 -68.17348 34080 ft 427 kts 321°
2026-05-07 10:35 20.86721 -68.21635 34046 ft 426 kts 321°
2026-05-07 10:36 20.91094 -68.25918 34052 ft 426 kts 321°
2026-05-07 10:36 20.95469 -68.30202 34058 ft 426 kts 321°
2026-05-07 10:37 20.99841 -68.34480 34064 ft 426 kts 321°
2026-05-07 10:37 21.04217 -68.38749 34074 ft 426 kts 321°
2026-05-07 10:38 21.08602 -68.43004 34076 ft 425 kts 321°
2026-05-07 10:38 21.12989 -68.47261 34072 ft 425 kts 321°
2026-05-07 10:39 21.17345 -68.51485 34070 ft 425 kts 321°
2026-05-07 10:39 21.21733 -68.55740 34058 ft 426 kts 321°
2026-05-07 10:40 21.26129 -68.60003 34063 ft 426 kts 321°
2026-05-07 10:40 21.30533 -68.64273 34064 ft 427 kts 321°
2026-05-07 10:41 21.34943 -68.68545 34062 ft 427 kts 321°
2026-05-07 10:41 21.39353 -68.72815 34062 ft 428 kts 321°
2026-05-07 10:42 21.43779 -68.77090 34065 ft 428 kts 321°
2026-05-07 10:42 21.48206 -68.81367 34066 ft 428 kts 321°
2026-05-07 10:43 21.52637 -68.85647 34067 ft 429 kts 321°
2026-05-07 10:43 21.57061 -68.89944 34063 ft 429 kts 321°
2026-05-07 10:44 21.61481 -68.94251 34070 ft 429 kts 321°
2026-05-07 10:44 21.65900 -68.98556 34072 ft 429 kts 321°
2026-05-07 10:45 21.70321 -69.02864 34069 ft 429 kts 321°
2026-05-07 10:45 21.74744 -69.07177 34073 ft 429 kts 321°
2026-05-07 10:46 21.79158 -69.11494 34075 ft 429 kts 321°
2026-05-07 10:46 21.83571 -69.15810 34076 ft 429 kts 321°
2026-05-07 10:47 21.87984 -69.20130 34065 ft 429 kts 321°
2026-05-07 10:47 21.92366 -69.24490 34068 ft 429 kts 321°
2026-05-07 10:48 21.96748 -69.28858 34070 ft 429 kts 321°
2026-05-07 10:48 22.01128 -69.33222 34074 ft 429 kts 321°
2026-05-07 10:49 22.05513 -69.37593 34070 ft 429 kts 321°
2026-05-07 10:49 22.09898 -69.41964 34075 ft 429 kts 321°
2026-05-07 10:50 22.14283 -69.46339 34079 ft 429 kts 321°
2026-05-07 10:50 22.18669 -69.50713 34080 ft 430 kts 321°
2026-05-07 10:51 22.23061 -69.55083 34067 ft 429 kts 321°
2026-05-07 10:51 22.27462 -69.59443 34072 ft 429 kts 321°
2026-05-07 10:52 22.31860 -69.63800 34070 ft 429 kts 321°
2026-05-07 10:52 22.36232 -69.68131 34073 ft 429 kts 321°
2026-05-07 10:53 22.40633 -69.72486 34078 ft 429 kts 321°
2026-05-07 10:53 22.45067 -69.76864 34087 ft 429 kts 321°
2026-05-07 10:54 22.49448 -69.81166 34087 ft 428 kts 322°
2026-05-07 10:54 22.53854 -69.85493 34087 ft 428 kts 322°
2026-05-07 10:55 22.58265 -69.89803 34084 ft 427 kts 322°
2026-05-07 10:55 22.62679 -69.94101 34087 ft 427 kts 322°
2026-05-07 10:56 22.67093 -69.98397 34083 ft 426 kts 322°
2026-05-07 10:56 22.71502 -70.02689 34083 ft 426 kts 322°
2026-05-07 10:57 22.75911 -70.06979 34086 ft 426 kts 322°
2026-05-07 10:57 22.80321 -70.11263 34087 ft 426 kts 322°
2026-05-07 10:58 22.84738 -70.15541 34087 ft 426 kts 322°
2026-05-07 10:58 22.89154 -70.19816 34087 ft 425 kts 322°
2026-05-07 10:59 22.93569 -70.24092 34075 ft 426 kts 322°
2026-05-07 10:59 22.97988 -70.28370 34077 ft 426 kts 322°
2026-05-07 11:00 23.02409 -70.32651 34080 ft 426 kts 322°
2026-05-07 11:00 23.06832 -70.36932 34079 ft 426 kts 322°
2026-05-07 11:01 23.11256 -70.41212 34080 ft 426 kts 322°
2026-05-07 11:01 23.15681 -70.45493 34080 ft 426 kts 322°
2026-05-07 11:02 23.20114 -70.49779 34077 ft 427 kts 322°
2026-05-07 11:02 23.24548 -70.54065 34068 ft 427 kts 322°
2026-05-07 11:03 23.28992 -70.58346 34074 ft 427 kts 322°
2026-05-07 11:03 23.33438 -70.62625 34076 ft 427 kts 322°
2026-05-07 11:04 23.37887 -70.66907 34079 ft 427 kts 322°
2026-05-07 11:04 23.42338 -70.71188 34080 ft 427 kts 322°
2026-05-07 11:05 23.46758 -70.75440 34081 ft 427 kts 322°
2026-05-07 11:05 23.51210 -70.79723 34083 ft 427 kts 322°
2026-05-07 11:06 23.55661 -70.84004 34086 ft 427 kts 322°
2026-05-07 11:06 23.60117 -70.88290 34075 ft 427 kts 321°
2026-05-07 11:07 23.64591 -70.92540 34085 ft 426 kts 322°
2026-05-07 11:07 23.69062 -70.96775 34089 ft 426 kts 322°
2026-05-07 11:08 23.73533 -71.01011 34087 ft 425 kts 322°
2026-05-07 11:08 23.78001 -71.05246 34087 ft 425 kts 322°
2026-05-07 11:09 23.82469 -71.09479 34088 ft 425 kts 322°
2026-05-07 11:09 23.86940 -71.13710 34087 ft 425 kts 322°
2026-05-07 11:10 23.91411 -71.17937 34087 ft 425 kts 322°
2026-05-07 11:10 23.95888 -71.22167 34086 ft 425 kts 322°
2026-05-07 11:11 24.00364 -71.26398 34088 ft 425 kts 322°
2026-05-07 11:11 24.04841 -71.30630 34087 ft 425 kts 322°
2026-05-07 11:12 24.09318 -71.34863 34087 ft 425 kts 322°
2026-05-07 11:12 24.13042 -71.38381 34086 ft 425 kts 322°
2026-05-07 11:13 24.17520 -71.42610 34088 ft 425 kts 322°
2026-05-07 11:13 24.22008 -71.46837 34087 ft 426 kts 322°
2026-05-07 11:14 24.26500 -71.51064 34087 ft 426 kts 322°
2026-05-07 11:14 24.30997 -71.55295 34091 ft 426 kts 322°
2026-05-07 11:15 24.35515 -71.59502 34075 ft 426 kts 322°
2026-05-07 11:15 24.40052 -71.63702 34077 ft 427 kts 322°
2026-05-07 11:16 24.44593 -71.67903 34082 ft 427 kts 322°
2026-05-07 11:16 24.49141 -71.72111 34083 ft 428 kts 322°
2026-05-07 11:17 24.53693 -71.76321 34085 ft 428 kts 322°
2026-05-07 11:17 24.58248 -71.80532 34084 ft 428 kts 322°
2026-05-07 11:18 24.62809 -71.84748 34087 ft 429 kts 322°
2026-05-07 11:18 24.67377 -71.88969 34087 ft 429 kts 322°
2026-05-07 11:19 24.71949 -71.93184 34078 ft 429 kts 322°
2026-05-07 11:19 24.76531 -71.97388 34083 ft 429 kts 322°
2026-05-07 11:20 24.81113 -72.01595 34089 ft 429 kts 322°
2026-05-07 11:20 24.85694 -72.05799 34094 ft 429 kts 322°
2026-05-07 11:21 24.90284 -72.10002 34090 ft 429 kts 322°
2026-05-07 11:21 24.94874 -72.14203 34090 ft 429 kts 322°
2026-05-07 11:22 24.99466 -72.18405 34093 ft 429 kts 322°
2026-05-07 11:22 25.04062 -72.22609 34093 ft 429 kts 322°
2026-05-07 11:23 25.08662 -72.26806 34088 ft 429 kts 322°
2026-05-07 11:23 25.13293 -72.30961 34093 ft 429 kts 322°
2026-05-07 11:24 25.17924 -72.35113 34099 ft 429 kts 322°
2026-05-07 11:24 25.22566 -72.39253 34096 ft 429 kts 322°
2026-05-07 11:25 25.27214 -72.43390 34097 ft 429 kts 322°
2026-05-07 11:25 25.31864 -72.47525 34096 ft 429 kts 322°
2026-05-07 11:26 25.36516 -72.51662 34100 ft 429 kts 322°
2026-05-07 11:26 25.41172 -72.55804 34102 ft 430 kts 322°
2026-05-07 11:27 25.45831 -72.59948 34102 ft 430 kts 322°
2026-05-07 11:27 25.50516 -72.64056 34105 ft 430 kts 322°
2026-05-07 11:28 25.55227 -72.68126 34115 ft 429 kts 322°
2026-05-07 11:28 25.59947 -72.72183 34116 ft 429 kts 322°
2026-05-07 11:29 25.64662 -72.76235 34113 ft 429 kts 322°
2026-05-07 11:29 25.69376 -72.80285 34111 ft 429 kts 323°
2026-05-07 11:30 25.74091 -72.84334 34110 ft 429 kts 323°
2026-05-07 11:30 25.78808 -72.88381 34111 ft 429 kts 323°
2026-05-07 11:31 25.83522 -72.92425 34108 ft 428 kts 323°
2026-05-07 11:31 25.88213 -72.96421 34107 ft 428 kts 322°
2026-05-07 11:32 25.95315 -73.02398 34110 ft 427 kts 323°
2026-05-07 11:33 26.00043 -73.06377 34104 ft 426 kts 323°
2026-05-07 11:33 26.04774 -73.10354 34098 ft 426 kts 323°
2026-05-07 11:34 26.09503 -73.14329 34100 ft 426 kts 323°
2026-05-07 11:34 26.14233 -73.18307 34102 ft 426 kts 323°
2026-05-07 11:35 26.18964 -73.22280 34103 ft 426 kts 323°
2026-05-07 11:35 26.23704 -73.26234 34095 ft 426 kts 323°
2026-05-07 11:36 26.28445 -73.30188 34089 ft 426 kts 323°
2026-05-07 11:36 26.33192 -73.34139 34091 ft 426 kts 323°
2026-05-07 11:37 26.37937 -73.38085 34096 ft 426 kts 323°
2026-05-07 11:37 26.42688 -73.42035 34096 ft 426 kts 323°
2026-05-07 11:38 26.47435 -73.45981 34094 ft 426 kts 323°
2026-05-07 11:38 26.52192 -73.49920 34107 ft 426 kts 323°
2026-05-07 11:39 26.56961 -73.53844 34103 ft 426 kts 323°
2026-05-07 11:39 26.61735 -73.57770 34102 ft 426 kts 323°
2026-05-07 11:40 26.66508 -73.61693 34099 ft 426 kts 323°
2026-05-07 11:40 26.71279 -73.65615 34088 ft 426 kts 323°
2026-05-07 11:41 26.76061 -73.69530 34088 ft 426 kts 323°
2026-05-07 11:41 26.80807 -73.73413 34090 ft 426 kts 323°
2026-05-07 11:42 26.85587 -73.77323 34093 ft 425 kts 323°
2026-05-07 11:42 26.90369 -73.81232 34090 ft 425 kts 323°
2026-05-07 11:43 26.95152 -73.85141 34093 ft 425 kts 323°
2026-05-07 11:43 26.99930 -73.89048 34091 ft 425 kts 323°
2026-05-07 11:44 27.04705 -73.92952 34088 ft 425 kts 323°
2026-05-07 11:44 27.09486 -73.96857 34087 ft 425 kts 323°
2026-05-07 11:45 27.14265 -74.00761 34093 ft 425 kts 323°
2026-05-07 11:45 27.19075 -74.04622 34090 ft 425 kts 323°
2026-05-07 11:46 27.23890 -74.08475 34084 ft 425 kts 323°
2026-05-07 11:46 27.28710 -74.12327 34087 ft 425 kts 323°
2026-05-07 11:47 27.33532 -74.16180 34091 ft 425 kts 323°
2026-05-07 11:47 27.38357 -74.20037 34091 ft 425 kts 323°
2026-05-07 11:48 27.43188 -74.23899 34087 ft 426 kts 323°
2026-05-07 11:48 27.47987 -74.27728 34101 ft 426 kts 323°
2026-05-07 11:49 27.52837 -74.31569 34097 ft 426 kts 323°
2026-05-07 11:49 27.57685 -74.35403 34094 ft 426 kts 323°
2026-05-07 11:50 27.62557 -74.39203 34093 ft 426 kts 323°
2026-05-07 11:50 27.67433 -74.42984 34094 ft 425 kts 323°
2026-05-07 11:51 27.72309 -74.46763 34095 ft 425 kts 323°
2026-05-07 11:51 27.77182 -74.50541 34093 ft 425 kts 323°
2026-05-07 11:52 27.82070 -74.54302 34102 ft 425 kts 323°
2026-05-07 11:52 27.86962 -74.58045 34101 ft 425 kts 323°
2026-05-07 11:53 27.91856 -74.61790 34099 ft 425 kts 323°
2026-05-07 11:53 27.96752 -74.65532 34100 ft 425 kts 323°
2026-05-07 11:54 28.01646 -74.69272 34105 ft 425 kts 323°
2026-05-07 11:54 28.06543 -74.73015 34103 ft 425 kts 323°
2026-05-07 11:55 28.11442 -74.76755 34115 ft 425 kts 323°
2026-05-07 11:55 28.16347 -74.80482 34110 ft 424 kts 323°
2026-05-07 11:56 28.21250 -74.84206 34107 ft 424 kts 323°
2026-05-07 11:56 28.26152 -74.87932 34107 ft 424 kts 323°
2026-05-07 11:57 28.31022 -74.91634 34106 ft 424 kts 323°
2026-05-07 11:57 28.35928 -74.95360 34106 ft 424 kts 323°
2026-05-07 11:58 28.40835 -74.99086 34105 ft 424 kts 323°
2026-05-07 11:58 28.45739 -75.02808 34114 ft 424 kts 323°
2026-05-07 11:59 28.50650 -75.06530 34119 ft 424 kts 323°
2026-05-07 11:59 28.55592 -75.10185 34111 ft 424 kts 323°
2026-05-07 12:00 28.59706 -75.13212 34110 ft 423 kts 323°
2026-05-07 12:00 28.64650 -75.16843 34109 ft 423 kts 323°
2026-05-07 12:01 28.69589 -75.20474 34108 ft 422 kts 323°
2026-05-07 12:01 28.74529 -75.24100 34120 ft 422 kts 323°
2026-05-07 12:02 28.79475 -75.27724 34109 ft 423 kts 323°
2026-05-07 12:02 28.84423 -75.31348 34100 ft 423 kts 323°
2026-05-07 12:03 28.89372 -75.34973 34093 ft 423 kts 323°
2026-05-07 12:03 28.94320 -75.38598 34083 ft 423 kts 323°
2026-05-07 12:04 28.99273 -75.42226 34088 ft 423 kts 323°
2026-05-07 12:04 29.04264 -75.45800 34107 ft 423 kts 323°
2026-05-07 12:05 29.09254 -75.49357 34105 ft 423 kts 323°
2026-05-07 12:05 29.14251 -75.52922 34099 ft 423 kts 323°
2026-05-07 12:06 29.19248 -75.56488 34094 ft 423 kts 323°
2026-05-07 12:06 29.24246 -75.60059 34094 ft 423 kts 323°
2026-05-07 12:07 29.29210 -75.63605 34095 ft 423 kts 323°
2026-05-07 12:07 29.34209 -75.67174 34105 ft 423 kts 324°
2026-05-07 12:08 29.39192 -75.70775 34105 ft 422 kts 324°
2026-05-07 12:08 29.44153 -75.74370 34101 ft 422 kts 323°
2026-05-07 12:09 29.49111 -75.77962 34104 ft 421 kts 323°
2026-05-07 12:09 29.54090 -75.81530 34104 ft 422 kts 324°
2026-05-07 12:10 29.59072 -75.85083 34095 ft 422 kts 324°
2026-05-07 12:10 29.64057 -75.88638 34111 ft 422 kts 324°
2026-05-07 12:11 29.69032 -75.92200 34106 ft 421 kts 324°
2026-05-07 12:11 29.73997 -75.95758 34101 ft 420 kts 324°
2026-05-07 12:12 29.78957 -75.99312 34098 ft 420 kts 324°
2026-05-07 12:12 29.83908 -76.02861 34093 ft 419 kts 324°
2026-05-07 12:13 29.88854 -76.06403 34083 ft 418 kts 324°
2026-05-07 12:13 29.93801 -76.09945 34071 ft 419 kts 324°
2026-05-07 12:14 29.98751 -76.13491 34071 ft 419 kts 324°
2026-05-07 12:14 30.03710 -76.17024 34077 ft 419 kts 324°
2026-05-07 12:15 30.08672 -76.20543 34072 ft 418 kts 324°
2026-05-07 12:15 30.13634 -76.24060 34068 ft 418 kts 324°
2026-05-07 12:16 30.18595 -76.27576 34066 ft 418 kts 324°
2026-05-07 12:16 30.23526 -76.31070 34077 ft 419 kts 324°
2026-05-07 12:17 30.28487 -76.34584 34077 ft 418 kts 324°
2026-05-07 12:17 30.33447 -76.38095 34080 ft 418 kts 324°
2026-05-07 12:18 30.38406 -76.41605 34078 ft 417 kts 324°
2026-05-07 12:18 30.43362 -76.45113 34077 ft 418 kts 324°
2026-05-07 12:19 30.48318 -76.48622 34073 ft 418 kts 324°
2026-05-07 12:19 30.53276 -76.52127 34077 ft 417 kts 324°
2026-05-07 12:20 30.58235 -76.55615 34096 ft 416 kts 324°
2026-05-07 12:20 30.63183 -76.59091 34083 ft 415 kts 324°
2026-05-07 12:21 30.68125 -76.62565 34077 ft 415 kts 324°
2026-05-07 12:21 30.73066 -76.66037 34071 ft 415 kts 324°
2026-05-07 12:22 30.78005 -76.69509 34065 ft 415 kts 324°
2026-05-07 12:22 30.82944 -76.72983 34064 ft 415 kts 324°
2026-05-07 12:23 30.87883 -76.76456 34083 ft 414 kts 324°
2026-05-07 12:23 30.92817 -76.79923 34078 ft 414 kts 324°
2026-05-07 12:24 30.97752 -76.83391 34070 ft 414 kts 324°
2026-05-07 12:24 31.02686 -76.86856 34078 ft 414 kts 324°
2026-05-07 12:25 31.07626 -76.90295 34074 ft 413 kts 324°
2026-05-07 12:25 31.12564 -76.93727 34069 ft 413 kts 324°
2026-05-07 12:26 31.17501 -76.97160 34089 ft 413 kts 324°
2026-05-07 12:26 31.22435 -77.00591 34071 ft 413 kts 324°
2026-05-07 12:27 31.27368 -77.04021 34054 ft 412 kts 324°
2026-05-07 12:27 31.32294 -77.07449 34045 ft 412 kts 324°
2026-05-07 12:28 31.37224 -77.10879 34041 ft 412 kts 324°
2026-05-07 12:28 31.42149 -77.14303 34038 ft 412 kts 324°
2026-05-07 12:29 31.47089 -77.17714 34048 ft 413 kts 324°
2026-05-07 12:29 31.52041 -77.21124 34040 ft 413 kts 324°
2026-05-07 12:30 31.57003 -77.24536 34033 ft 414 kts 324°
2026-05-07 12:30 31.61976 -77.27941 34031 ft 414 kts 324°
2026-05-07 12:31 31.66953 -77.31349 34031 ft 414 kts 324°
2026-05-07 12:31 31.71903 -77.34737 34045 ft 415 kts 324°
2026-05-07 12:32 31.76899 -77.38138 34034 ft 415 kts 324°
2026-05-07 12:32 31.81906 -77.41546 34032 ft 416 kts 324°
2026-05-07 12:33 31.89423 -77.46665 34026 ft 416 kts 324°
2026-05-07 12:33 31.94434 -77.50079 34027 ft 416 kts 324°
2026-05-07 12:34 31.99448 -77.53495 34027 ft 416 kts 324°
2026-05-07 12:34 32.04478 -77.56886 34043 ft 417 kts 324°
2026-05-07 12:35 32.09517 -77.60259 34032 ft 417 kts 324°
2026-05-07 12:35 32.14566 -77.63650 34018 ft 418 kts 324°
2026-05-07 12:36 32.19622 -77.67049 34016 ft 419 kts 324°
2026-05-07 12:36 32.24691 -77.70455 34013 ft 419 kts 324°
2026-05-07 12:37 32.29763 -77.73862 34039 ft 420 kts 324°
2026-05-07 12:37 32.34877 -77.77230 34014 ft 421 kts 324°
2026-05-07 12:38 32.40007 -77.80598 34009 ft 422 kts 324°
2026-05-07 12:38 32.45147 -77.83972 34009 ft 423 kts 324°
2026-05-07 12:39 32.50295 -77.87353 34008 ft 423 kts 324°
2026-05-07 12:39 32.55436 -77.90730 34008 ft 423 kts 324°
2026-05-07 12:40 32.60602 -77.94090 34013 ft 424 kts 324°
2026-05-07 12:40 32.65783 -77.97438 33996 ft 424 kts 324°
2026-05-07 12:41 32.66528 -77.97928 33996 ft 424 kts 324°